Location: La Pernelle
(49.6188°N, 1.2999°W)
Time: 10:17:17
(UTC+00:00)

Meteor 2-20 - Pass Details

Date: 12 June 2021
Orbit: 939 x 958 km, 82.5° (Epoch: 03 August)

Event Time Altitude Azimuth Distance (km) Brightness Sun altitude
Exits shadow 21:16:45 - 181° (S) 3,496 6.9 -8.1°
Reaches altitude 10° 21:18:56 10° 179° (S) 2,669 6.3 -8.4°
Maximum altitude 21:25:00 73° 96° (E) 993 4.5 -9.0°
Drops below altitude 10° 21:31:06 10° 13° (NNE) 2,674 7.4 -9.5°
Sets 21:33:35 0° 12° (NNE) 3,621 8.2 -9.8°
